This demonstration page uses our WeatherBlox Daily Observations layout. Learn more.

Left ArrowRight Arrow

40.97296, -117.73568

Hourly Observations for September 9, 2016

Temp ( °F °C ) Dew Point ( °F °C ) Humidity (%) Winds ( mph kmh ) Pressure ( in mb ) Visibility ( mi km ) Precip ( " mm )
12:56 am 00:56 Clear 60 15.6 22 -5.6 23 23 NNW 9 15 30.06 1018 10 16 0.00 0.00
1:56 am 01:56 Clear 54 12.2 24 -4.4 31 31 NW 7 11 30.09 1019 10 16 0.00 0.00
2:56 am 02:56 Clear 55 12.8 23 -5 29 29 NW 3 6 30.09 1019 10 16 0.00 0.00
3:56 am 03:56 Clear 52 11.1 21 -6.1 30 30 NW 10 17 30.10 1019 10 16 0.00 0.00
4:56 am 04:56 Clear 47 8.3 15 -9.4 28 28 NW 8 13 30.13 1020 10 16 0.00 0.00
5:56 am 05:56 Clear 49 9.4 15 -9.4 26 26 N 8 13 30.14 1021 10 16 0.00 0.00
6:56 am 06:56 Sunny 47 8.3 19 -7.2 33 33 NNW 8 13 30.19 1022 10 16 0.00 0.00
7:56 am 07:56 Sunny 58 14.4 17 -8.3 20 20 NNE 13 20 30.20 1023 10 16 0.00 0.00
8:56 am 08:56 Sunny 63 17.2 18 -7.8 17 17 NNE 15 24 30.23 1024 10 16 0.00 0.00
9:56 am 09:56 Sunny 67 19.4 19 -7.2 16 16 NNE 15 24 30.21 1023 10 16 0.00 0.00
10:56 am 10:56 Sunny 71 21.7 20 -6.7 14 14 NNE 16 26 30.20 1023 10 16 0.00 0.00
11:56 am 11:56 Sunny 75 23.9 17 -8.3 11 11 NE 13 20 30.18 1022 10 16 0.00 0.00
12:56 pm 12:56 Sunny 77 25 15 -9.4 9 9 N 13 20 30.17 1022 10 16 0.00 0.00
1:56 pm 13:56 Sunny 79 26.1 14 -10 8 8 NNE 12 19 30.16 1021 10 16 0.00 0.00
2:56 pm 14:56 Sunny 80 26.7 12 -11.1 7 7 NNE 13 20 30.14 1021 10 16 0.00 0.00
3:56 pm 15:56 Sunny 80 26.7 10 -12.2 7 7 NE 8 13 30.14 1021 10 16 0.00 0.00
4:56 pm 16:56 Sunny 80 26.7 9 -12.8 6 6 NNE 9 15 30.13 1020 10 16 0.00 0.00
5:56 pm 17:56 Sunny 79 26.1 8 -13.3 6 6 NNE 9 15 30.12 1020 10 16 0.00 0.00
6:56 pm 18:56 Sunny 75 23.9 11 -11.7 8 8 N 6 9 30.13 1020 10 16 0.00 0.00
7:56 pm 19:56 Clear 67 19.4 12 -11.1 12 12 NNE 6 9 30.14 1021 10 16 0.00 0.00
8:56 pm 20:56 Clear 52 11.1 11 -11.7 19 19 WSW 7 11 30.16 1022 10 16 0.00 0.00
9:56 pm 21:56 Clear 53 11.7 13 -10.6 20 20 N 6 9 30.16 1022 10 16 0.00 0.00
10:56 pm 22:56 Clear 50 10 12 -11.1 22 22 WNW 6 9 30.16 1021 10 16 0.00 0.00
11:56 pm 23:56 Clear 53 11.7 9 -12.8 17 17 NNW 5 7 30.15 1021 10 16 0.00 0.00

Powered by AerisWeather